GW0244 Weather Reports


time (UTC)temp
C
wind
direction
speed
KPH
gust
KPH
rain 1hr
cm
rain 24hr
cm
rain mn
cm
humidity
%
barometer
mb
20260503181543 25 231 3.2 9.7 0.00 0.00 0.00 50 1010.9
20260503180042 24 291 3.2 8.0 0.00 0.00 0.00 50 1011.0
20260503174555 23 345 1.6 6.4 0.00 0.00 0.00 53 1011.2
20260503173051 23 329 0.0 8.0 0.00 0.00 0.00 56 1011.2
20260503171542 22 5 0.0 6.4 0.00 0.00 0.00 58 1011.4
20260503081554 12 0 0.0 0.0 0.00 0.03 0.00 90 1012.2
20260503071604 13 0 0.0 1.6 0.00 0.03 0.00 87 1012.4
20260503054554 16 32 0.0 4.8 0.00 0.03 0.03 80 1012.4
20260503053044 16 0 0.0 6.4 0.00 0.03 0.03 78 1012.3
20260503051548 17 5 0.0 3.2 0.00 0.03 0.03 76 1012.0
20260503050043 17 352 1.6 9.7 0.00 0.03 0.03 76 1012.0
20260503044544 16 42 1.6 3.2 0.00 0.03 0.03 79 1012.1
20260503043046 16 0 0.0 1.6 0.00 0.03 0.03 78 1012.3
20260503041543 16 42 0.0 4.8 0.00 0.03 0.03 78 1012.1
20260503040044 16 0 0.0 1.6 0.00 0.03 0.03 77 1012.0
20260503034551 17 0 0.0 4.8 0.00 0.03 0.03 76 1012.1
20260503033055 17 52 3.2 6.4 0.00 0.03 0.03 75 1012.1
20260503031541 17 144 0.0 4.8 0.00 0.03 0.03 75 1012.0
20260503030050 17 0 0.0 4.8 0.00 0.03 0.03 74 1011.7
20260503024549 17 352 0.0 8.0 0.00 0.03 0.03 73 1012.0
20260503023050 17 196 4.8 12.9 0.00 0.03 0.03 73 1012.1
20260503021543 17 242 8.0 29.0 0.00 0.03 0.03 73 1012.1
20260503020050 18 173 12.9 27.4 0.00 0.03 0.03 69 1012.3
20260503014551 20 148 6.4 14.5 0.00 0.03 0.03 64 1011.4
20260503013045 21 0 0.0 1.6 0.00 0.03 0.03 58 1011.2
20260503011600 21 202 0.0 3.2 0.00 0.03 0.03 59 1011.2
20260503010047 21 0 1.6 4.8 0.00 0.03 0.03 58 1011.1
20260503004541 21 24 1.6 8.0 0.00 0.03 0.03 59 1011.0
20260503003043 21 0 0.0 11.3 0.00 0.03 0.03 57 1011.1
20260503001556 21 0 1.6 11.3 0.00 0.03 0.03 56 1011.0
20260503000056 21 253 0.0 6.4 0.00 0.03 0.03 56 1011.1
20260502234606 22 0 0.0 9.7 0.00 0.03 0.03 56 1011.2
20260502233050 21 321 3.2 14.5 0.00 0.03 0.03 56 1011.5
20260502231541 21 246 3.2 11.3 0.00 0.03 0.03 59 1011.6
20260502230055 21 58 1.6 12.9 0.00 0.03 0.03 58 1011.9
20260502224548 21 0 1.6 6.4 0.00 0.03 0.03 60 1011.9
20260502223057 20 236 0.0 4.8 0.00 0.03 0.03 60 1012.1
20260502221541 20 247 1.6 16.1 0.00 0.03 0.03 62 1012.3
20260502220042 19 94 1.6 11.3 0.00 0.03 0.03 63 1012.5
20260502214551 19 355 1.6 8.0 0.00 0.03 0.03 62 1012.8
20260502213047 17 198 6.4 11.3 0.00 0.03 0.03 66 1012.9
20260502211544 18 0 0.0 11.3 0.00 0.03 0.03 65 1013.2
20260502210044 17 196 3.2 16.1 0.00 0.03 0.03 67 1013.2
20260502204542 17 252 1.6 14.5 0.00 0.03 0.03 69 1013.8
20260502203113 16 165 4.8 11.3 0.00 0.03 0.03 70 1014.2
20260502201556 15 178 3.2 11.3 0.00 0.03 0.03 73 1014.4
20260502200046 15 195 6.4 11.3 0.00 0.03 0.03 73 1014.5
20260502194554 15 261 1.6 11.3 0.00 0.03 0.03 71 1014.6
20260502193056 16 0 1.6 8.0 0.00 0.03 0.03 72 1014.6
20260502191542 14 257 4.8 11.3 0.00 0.03 0.03 75 1014.9
20260502190046 13 250 3.2 9.7 0.00 0.03 0.03 78 1015.2
20260502184545 13 217 4.8 8.0 0.00 0.03 0.03 78 1015.3
20260502183044 12 313 3.2 12.9 0.00 0.03 0.03 80 1015.1